Der Flugplatz Krefeld-Egelsberg
  • ICAO-Code: EDLK
  • Koordinaten: N 51° 23,10'    E 06° 35,26'
  • Höhe ü. NN: 141 ft / 43 m
  • Platzfrequenz: 120.675 MHz - Krefeld Info
  • Landebahn: 06 - 24
  • Abmessungen: 640 x 30m
  • Belag: Gras
  • Tragfähigkeit: 2000 kg MTW; HEL 5700 kg MTW
  • Tankstelle: Nein
  • Betriebszeit: PPR
  • PPR-Request: Tel: 02151/ 560133, 368400
  • Landegebühr: Private Flüge 5 €, für gewerbliche Flüge wird eine gesonderte Gebühr erhoben

 


EDLK

Wetterinformation

[Quelle: ADDS]
METAR
EDDL 121950Z 22010KT 9999 SCT015 BKN025 03/00 Q1014 NOSIG =
TAF
EDDL 121700Z 1218/1324 23010KT 9999 BKN012 TEMPO 1218/1222 BKN015 BECMG 1222/1301 17011KT SCT020 BECMG 1303/1306 18015G25KT TEMPO 1308/1314 19020G30KT RA TEMPO 1319/1323 21020G35KT RA BKN013 =
Lade Webcam-Bild